HULIANWANG DIGUI-54

导读 | 豆包AI

**HULIANWANG DIGUI-54卫星**于2025年8月4日由中国发射,该卫星名称中“DIGUI”音译为“地瓜”,是中国低轨互联网卫星星座组网任务的第54颗卫星,主要为全球提供高速互联网接入服务,助力天地一体化信息网络建设,进一步完善中国卫星互联网星座布局,增强了中国在卫星通信领域的服务能力。

Basic Information
目录编号:
65111
目录名称:
HULIANWANG DIGUI-54
国际标识:
2025-168F
轨道中心:
EARTH
卫星名称:
HULIANWANG DIGUI-54
卫星全名:
HULIANWANG DIGUI-54
卫星状态:
在轨 (已飞行222 天)
发射日期:
2025-08-04 UTC
国别 :
中国 (CN)
星等 :
--
Orbit Information
数据来源 国际轨道数据 AOE轨道数据
星历时间 2026-03-13T22:59:54+0800
12小时前
查看轨道信息
2026-03-13T14:00:00+0800
21小时前
查看轨道信息
半长轴 7527.404km 7527.404km
偏心率 0.0010091 0.0010182
轨道倾角 50.000° 49.999°
近地点辐角 170.521° 170.696°
升交点赤经 308.123° 309.468°
平近点角 189.585° 194.034°
近地点 1141.671km 1141.602km
远地点 1156.863km 1156.932km
周期 108.325分钟 108.325分钟
每日圈数 13.293367 13.293367
Detailed Information
使用方式:
暂无
2D Orbit Map
3D Orbit Map
Orbit Altitude Analysis Chart
Orbit Inclination Analysis Chart
Orbit Comprehensive Analysis Chart
View Comprehensive Chart